Погода в Красном Маяке

Россия / Владимирская область     56°02′56″N   41°21′57″E
темп.,
°C
ветер,
м/с
пор.,
м/с
влажн.,
%
обл.,
%
осадки,
мм/ч
давл.,
гПа
погр.,
м
28 июля, ср
ср2800:00+15вюв11825 0.4 101811
03:00+14ссз008516 0.4 101811
06:00+16вюв12867 0.0 101873
09:00+19юв1373100 0.0 1017217
12:00+26ююв2241100 0.0 10161148
15:00+28ююв1337100 0.0 10142393
18:00+22св2464100 0.1 1012114
21:00+16зсз2694100 0.9 1013175
29 июля, чт
чт2900:00+16ююз2492100 0.0 101191
03:00+16ююв2998100 3.3 1010340
06:00+16ююв4997100 7.4 1007422
09:00+16ю3899100 25.8 1005538
12:00+17з3696100 0.9 1005480
15:00+19зсз4785100 1.1 1006770
18:00+20з267980 0.1 1005496
21:00+17юз24915 0.1 100570
30 июля, пт
пт3000:00+17юз3791100 0.0 1005119
03:00+16зюз2694100 0.1 1005110
06:00+18зюз2589100 0.0 1005148
09:00+22зюз2469100 0.0 1005383
12:00+19юз3692100 1.0 1006318
15:00+18юз1299100 9.1 1005124
18:00+19юз249352 1.4 1005425
21:00+17юз22985 1.4 100529
31 июля, сб
сб3100:00+16ююз259820 0.1 1005115
03:00+17зюз2797100 0.4 1004172
06:00+16зюз279310 0.0 1005167
09:00+21зюз376920 0.0 1005446
12:00+26зюз594450 0.0 10052593
15:00+25з510435 0.0 10051741
18:00+24з49503 0.0 10051082
21:00+18зсз2270100 0.0 100725
1 августа, вс
вс100:00+16зюз35760 0.0 100875
03:00+15юз2481100 0.0 100971
06:00+16ююз2678100 0.0 1009137
09:00+23ююз475393 0.0 1008498
12:00+26ю484820 0.0 10071209
15:00+31юз61235100 0.0 10043351
18:00+24з41262100 0.1 1005626
21:00+19з258995 0.1 1007106